Regional Weather Roundup
Issued by NWS

Home | Current Version | Previous Version | Text Only | Print | Product List | Glossary Off
Versions: 1 2 3 4 5 6 7 8 9 10 11 12 13 14 15 16 17 18 19 20 21 22 23 24 25 26 27 28 29 30 31 32 33 34 35 36 37 38 39 40 41 42 43 44 45 46 47 48 49 50

000
ASUS43 KMKX 250621
RWRWI

WISCONSIN REGIONAL WEATHER ROUNDUP
NATIONAL WEATHER SERVICE MILWAUKEE/SULLIVAN WI
100 AM CDT SAT APR 25 2015

NOTE: "FAIR" INDICATES FEW OR NO CLOUDS BELOW 12,000 FEET WITH NO
SIGNIFICANT WEATHER AND/OR OBSTRUCTIONS TO VISIBILITY.

WIZ001-002-006>008-014>016-023>028-250700-
NORTHWEST WISCONSIN

CITY           SKY/WX    TMP DP  RH WIND       PRES   REMARKS
SUPERIOR ARPT  CLOUDY    35  32  87 NE12G18   29.94S WCI  27
6HR MIN TEMP:  35; 6HR MAX TEMP:  36;

ASHLAND        CLOUDY    37  34  89 NE9       29.95S WCI  30
6HR MIN TEMP:  36; 6HR MAX TEMP:  39;

HAYWARD        CLOUDY    42  31  64 NE5       29.89S
6HR MIN TEMP:  40; 6HR MAX TEMP:  42;

SIREN          CLOUDY    44  30  56 E6        29.86F
6HR MIN TEMP:  44; 6HR MAX TEMP:  47;

CUMBERLAND     CLOUDY    43  32  65 SE12      29.86S
RICE LAKE      CLOUDY    45  31  58 SE13      29.88S
6HR MIN TEMP:  45; 6HR MAX TEMP:  51;

CHETEK         CLOUDY    44  32  63 E15G23    29.87S
6HR MIN TEMP:  44; 6HR MAX TEMP:  50;

LADYSMITH      CLOUDY    44  34  68 SE8       29.91S
6HR MIN TEMP:  44; 6HR MAX TEMP:  47;

EAU CLAIRE     CLOUDY    43  35  73 E12       29.88S
6HR MIN TEMP:  43; 6HR MAX TEMP:  50;

MENOMONIE      CLOUDY    43  36  78 E15       29.86F
6HR MIN TEMP:  43; 6HR MAX TEMP:  48;

NEW RICHMOND   CLOUDY    43  35  72 E15G21    29.83F
6HR MIN TEMP:  43; 6HR MAX TEMP:  47;

OSCEOLA        CLOUDY    45  35  67 E13       29.86S
6HR MIN TEMP:  45; 6HR MAX TEMP:  49;

$$

WIZ003>005-009-010-017-018-250700-
NORTH CENTRAL WISCONSIN

CITY           SKY/WX    TMP DP  RH WIND       PRES   REMARKS
MANITOWISH WTR CLOUDY    40  30  68 SE5       29.93F
6HR MIN TEMP:  40; 6HR MAX TEMP:  42;

ARBOR VITAE    CLOUDY    40  31  67 SE6       29.93F
6HR MIN TEMP:  40; 6HR MAX TEMP:  44;

WOODRUFF       CLOUDY    40  31  67 SE6       29.93F
6HR MIN TEMP:  40; 6HR MAX TEMP:  44;

RHINELANDER    CLOUDY    39  27  62 E8        29.95F WCI  33
6HR MIN TEMP:  39; 6HR MAX TEMP:  45;

EAGLE RIVER    MOCLDY    39  24  56 SE3       29.95F
6HR MIN TEMP:  39; 6HR MAX TEMP:  43;

LAND O LAKES   CLOUDY    39  30  71 SE3       29.96S
6HR MIN TEMP:  38; 6HR MAX TEMP:  44;

PHILLIPS       MOCLDY    39  29  69 E6        29.91S WCI  35
6HR MIN TEMP:  40; 6HR MAX TEMP:  43;

TOMAHAWK       CLOUDY    38  27  63 CALM      29.94S
6HR MIN TEMP:  38; 6HR MAX TEMP:  47;

MEDFORD        CLOUDY    39  32  77 SE8       29.90F WCI  33
6HR MIN TEMP:  38; 6HR MAX TEMP:  51;

MERRILL        CLOUDY    40  24  53 SE8       29.94F WCI  34
6HR MIN TEMP:  40; 6HR MAX TEMP:  50;

$$

WIZ029-030-035-036-043>047-250700-
CENTRAL WISCONSIN

CITY           SKY/WX    TMP DP  RH WIND       PRES   REMARKS
WAUSAU         CLOUDY    40  26  57 SE9       29.93F WCI  34
6HR MIN TEMP:  40; 6HR MAX TEMP:  50; 6HR PCP: TRACE;

MOSINEE        CLOUDY    37  30  75 E8        29.95S WCI  31
MARSHFIELD     LGT RAIN  38  34  85 E10       29.91F WCI  31
6HR MIN TEMP:  38; 6HR MAX TEMP:  50; 6HR PCP: TRACE;

STEVENS POINT  LGT RAIN  35  33  91 E12       29.95F WCI  27
6HR MIN TEMP:  35; 6HR MAX TEMP:  47;

WAUPACA        DRIZZLE   38  34  83 NE5       29.97F WCI  35
6HR MIN TEMP:  38; 6HR MAX TEMP:  48;

WAUTOMA        CLOUDY    38  37  96 E9        29.96F WCI  31
6HR MIN TEMP:  38; 6HR MAX TEMP:  46; 6HR PCP:  0.07;

WISC RAPIDS    CLOUDY    38  33  82 E10       29.95S WCI  31
6HR MIN TEMP:  38; 6HR MAX TEMP:  52; 6HR PCP: TRACE;

CAMP DOUGLAS   MOCLDY    39  39 100 E15       29.88F WCI  31
6HR MIN TEMP:  39; 6HR MAX TEMP:  42; 6HR PCP:  0.02;

$$

WIZ011>013-019>022-031-037>040-048>050-250700-
NORTHEAST WISCONSIN

CITY           SKY/WX    TMP DP  RH WIND       PRES   REMARKS
ANTIGO         CLOUDY    37  21  53 SE10      29.95F WCI  30
SHAWANO        CLOUDY    41  25  53 E6        29.98F
6HR MIN TEMP:  40; 6HR MAX TEMP:  46;

OCONTO         CLOUDY    37  28  71 CALM      30.01S
6HR MIN TEMP:  37; 6HR MAX TEMP:  41;

STURGEON BAY   CLOUDY    37  19  48 E6        30.03S WCI  33
6HR MIN TEMP:  37; 6HR MAX TEMP:  39;

GREEN BAY      CLOUDY    40  24  53 E3        30.00F
6HR MIN TEMP:  40; 6HR MAX TEMP:  46;

MANITOWOC      CLOUDY    39  31  72 NE3       29.99F
6HR MIN TEMP:  39; 6HR MAX TEMP:  40;

APPLETON       CLOUDY    37  30  75 E7        29.97F WCI  32
CLINTONVILLE   CLOUDY    39  23  52 E7        29.98S WCI  34
OSHKOSH        CLOUDY    39  34  82 E7        29.95F WCI  34
6HR MIN TEMP:  38; 6HR MAX TEMP:  46; 6HR PCP:  0.03;

$$

WIZ032>034-041-042-053>061-250700-
SOUTHWEST WISCONSIN

CITY           SKY/WX    TMP DP  RH WIND       PRES   REMARKS
LA CROSSE      CLOUDY    44  37  76 VRB6      29.84F
6HR MIN TEMP:  44; 6HR MAX TEMP:  46; 6HR PCP:  0.03;

SPARTA         CLOUDY    40  36  84 E18       29.87F WCI  31
6HR MIN TEMP:  40; 6HR MAX TEMP:  43; 6HR PCP:  0.02;

VIROQUA        CLOUDY    39  37  90 E17G24    29.83F WCI  30
6HR MIN TEMP:  39; 6HR MAX TEMP:  41;

BOSCOBEL       CLOUDY    42  36  79 NE9       29.85F
6HR MIN TEMP:  42; 6HR MAX TEMP:  45;

PRAIRIE DU CHI CLOUDY    43  35  74 E13G20    29.81F
6HR MIN TEMP:  43; 6HR MAX TEMP:  45;

PLATTEVILLE    CLOUDY    41  37  84 E24       29.81F
6HR MIN TEMP:  41; 6HR MAX TEMP:  44;

$$

WIZ056-057-062-063-064-067-068-250700-
SOUTH CENTRAL WISCONSIN

CITY           SKY/WX    TMP DP  RH WIND       PRES   REMARKS
REEDSBURG      CLOUDY    38  34  84 E7        29.90F WCI  33
6HR MIN TEMP:  38; 6HR MAX TEMP:  42;

BARABOO/DELLS  CLOUDY    38  34  85 E12       29.91F WCI  30
6HR MIN TEMP:  38; 6HR MAX TEMP:  41;

LONE ROCK      CLOUDY    41  35  79 E18       29.87F
6HR MIN TEMP:  41; 6HR MAX TEMP:  43; 6HR PCP: TRACE;

MINERAL POINT  CLOUDY    41  36  81 E15       29.83F
MADISON        CLOUDY    40  34  79 E14G26    29.91F WCI  32
6HR MIN TEMP:  39; 6HR MAX TEMP:  43; 6HR PCP:  0.03;

MIDDLETON      CLOUDY    41  35  79 E9G18     29.90F
6HR MIN TEMP:  41; 6HR MAX TEMP:  43; 6HR PCP:  0.01;

WATERTOWN      CLOUDY    38  35  87 E13       29.92F WCI  30
6HR MIN TEMP:  37; 6HR MAX TEMP:  40;

MONROE         CLOUDY    39  34  81 E14G21    29.86F WCI  31
JANESVILLE     CLOUDY    41  34  75 E17       29.88F
$$

WIZ051-052-058>065-066-070>072-250700-
SOUTHEAST WISCONSIN

CITY           SKY/WX    TMP DP  RH WIND       PRES   REMARKS
MILWAUKEE      CLOUDY    38  32  79 NE8       29.96F WCI  32
6HR MIN TEMP:  38; 6HR MAX TEMP:  40; 6HR PCP:  0.02;

WAUKESHA       CLOUDY    36  32  87 E9        29.95F WCI  29
MILWAUKEE/TIMM CLOUDY    37  32  81 E7        29.96F WCI  32
RACINE         CLOUDY    40  33  76 E14       29.96F WCI  32
6HR MIN TEMP:  39; 6HR MAX TEMP:  41; 6HR PCP:  0.02;

BURLINGTON     CLOUDY    38  32  78 E9G17     29.93F WCI  32
6HR MIN TEMP:  38; 6HR MAX TEMP:  39; 6HR PCP:  0.01;

KENOSHA        CLOUDY    40  35  83 E16       29.94S WCI  31
6HR MIN TEMP:  39; 6HR MAX TEMP:  41; 6HR PCP:  0.08;

FOND DU LAC    CLOUDY    39  33  79 E8        29.96F WCI  33
6HR MIN TEMP:  38; 6HR MAX TEMP:  44; 6HR PCP:  0.01;

SHEBOYGAN      CLOUDY    38  34  85 E5        29.98S WCI  34
6HR MIN TEMP:  36; 6HR MAX TEMP:  39; 6HR PCP:  0.01;

WEST BEND      CLOUDY    36  32  87 E7        29.96F WCI  30
JUNEAU         CLOUDY    38  33  84 E9        29.94F WCI  31
6HR MIN TEMP:  37; 6HR MAX TEMP:  39;

$$

LSZ147-162-250700-
LAKE SUPERIOR

STATION/POSITION TIME  TEMP    WIND        PRES    WAVE
                       AIR SEA DIR/SP/G            HT/PER
                 (UTC) (F)     (DEG/KT/KT) (MB)    (FT/S)
W MID LAKE BUOY  0550   35 34   60/ 14/ 16 1017.2F   2/ 5
DEVILS ISLAND    0600   36      80/ 17/ 18 1015.7R
PORT WING        0540   38      30/ 12/ 13 1014.2S
SAXON HARBOR     0500   38        CALM     1013.9S
$$

LMZ867-665-643>646-250700-
LAKE MICHIGAN

STATION/POSITION TIME  TEMP    WIND        PRES    WAVE



USA.gov is the U.S. government's official web portal to all federal, state and local government web resources and services.